Regional Weather Roundup
Issued by NWS

Home | Current Version | Previous Version | Text Only | Print | Product List | Glossary Off
Versions: 1 2 3 4 5 6 7 8 9 10 11 12 13 14 15 16 17 18 19 20 21 22 23 24 25 26 27 28 29 30 31 32 33 34 35 36 37 38 39 40 41 42 43 44 45 46 47 48 49 50

000
ASUS43 KIND 211400
RWRIN

WEATHER ROUNDUP FOR INDIANA
NATIONAL WEATHER SERVICE INDIANAPOLIS IN
1000 AM EDT MON AUG 21 2017

NOTE: "FAIR" INDICATES FEW OR NO CLOUDS BELOW 12,000 FEET WITH NO
SIGNIFICANT WEATHER AND/OR OBSTRUCTIONS TO VISIBILITY.

* - STATION DOES NOT REPORT WEATHER SUCH AS PRECIPITATION OR FOG.

+ - STATION NOT QUALITY CONTROLLED BY THE NATIONAL WEATHER SERVICE.
    USE DATA WITH CAUTION...ESPECIALLY DEWPOINT AND RELATIVE
    HUMIDITY OBSERVATIONS.

INZ001>003-010>013-019-020-211500-
NORTHWEST INDIANA

CITY           SKY/WX    TMP DP  RH WIND       PRES   REMARKS
GARY /AIRPORT/ CLOUDY    77  72  83 SW7       30.08R
MICHIGAN CITY+ MOSUNNY   77  68  73 SW13      30.08S
MONTICELLO +   PTSUNNY   74  72  93 S8        30.09F

$$

LMZ046-743>745-211500-
SOUTHERN LAKE MICHIGAN

STATION/POSITION TIME  TEMP    WIND        PRES    WAVE
                       AIR SEA DIR/SP/G            HT
                 (UTC) (F)     (DEG/KT/KT) (MB)    (FT)
BURNS HARBOR     1308   74     200/ 10/ 16 1018.6
MICHIGAN CITY    1330   74     190/  9/ 11   N/A
5NW MICH CITY    1350   74 74  210/ 10/ 12   N/A     1

$$

INZ004-005-014>016-021>024-211500-
NORTH CENTRAL INDIANA

CITY           SKY/WX    TMP DP  RH WIND       PRES   REMARKS
ELKHART        SUNNY     79  68  69 SW9       30.08F
SOUTH BEND     CLOUDY    78  71  79 SW16      30.08F

$$

INZ006>009-017-018-025>027-211500-
NORTHEAST INDIANA

CITY           SKY/WX    TMP DP  RH WIND       PRES   REMARKS
FORT WAYNE     PTSUNNY   78  68  71 S8        30.12S

$$

INZ028-029-035-036-043>045-051>053-211500-
WEST CENTRAL INDIANA

CITY           SKY/WX    TMP DP  RH WIND       PRES   REMARKS
LAFAYETTE      PTSUNNY   75  73  93 SW5       30.10S
TERRE HAUTE    MOSUNNY   80  71  74 SW7       30.12S

$$

INZ030>032-037>040-046>048-054>057-064-065-211500-
CENTRAL INDIANA

CITY           SKY/WX    TMP DP  RH WIND       PRES   REMARKS
ANDERSON       SUNNY     79  72  78 MISG      30.14S
GREENWOOD *+   SUNNY     80  69  69 SW5       30.14F
INDIANAPOLIS   PTSUNNY   80  70  71 SW9       30.12S
-EAGLE CREEK   MOSUNNY   81  70  69 SW7       30.12S
MT COMFORT *+  SUNNY     77  70  78 S6        30.13F
SHELBYVILLE    SUNNY     79  69  71 S6        30.13F

$$

INZ033-034-041-042-049-050-058-059-211500-
EAST CENTRAL INDIANA

CITY           SKY/WX    TMP DP  RH WIND       PRES   REMARKS
MUNCIE         SUNNY     83  71  67 SW8       30.13S
RICHMOND +     SUNNY     77  70  78 SW7       30.17S

$$

INZ060-061-067>069-081>083-085>088-211500-
SOUTHWEST INDIANA

CITY           SKY/WX    TMP DP  RH WIND       PRES   REMARKS
EVANSVILLE     SUNNY     81  68  64 S5        30.14S
HUNTINGBURG +  SUNNY     80  70  71 MISG      30.15S

$$

INZ062-063-066-070>080-084-089>092-211500-
SOUTH CENTRAL AND SOUTHEAST INDIANA

CITY           SKY/WX    TMP DP  RH WIND       PRES   REMARKS
BLOOMINGTON    SUNNY     82  68  62 SW5       30.14S
MADISON *+     MOSUNNY   79  68  69 S5        30.19S
SEYMOUR +      MOSUNNY   81  70  69 S5        30.14S

$$




USA.gov is the U.S. government's official web portal to all federal, state and local government web resources and services.